When you browse on this site, cookies collect data to enhance your experience and personalize the content and advertising you see.
Visit our Privacy Policy to learn more. By continuing to use the site, you agree to this use of cookies and data.
  • în România
  • Lista ţărilor
  • Pe 7 zile
  • Temperatura apei
  • Hartă satelitară
  • Meteo pe hartă
  • Widget-uri
  • user-avatar
    Intrare

    Meteo pe oră la Spring Garden

    Astăzi, 20 Ianuarie, Duminică

    Timp Temperatura Precipitaţii Vânt Presiune Umiditate
    00:00 +5°C° 0.1 mm 2 m/s 648 mmHg 98%
    01:00 +5°C° 0.1 mm 2 m/s 647 mmHg 98%
    02:00 +4°C° 0.2 mm 3 m/s 647 mmHg 98%
    03:00 +4°C° 0.2 mm 4 m/s 646 mmHg 98%
    04:00 +5°C° 0.2 mm 4 m/s 646 mmHg 97%
    05:00 +4°C° 3.1 mm 4 m/s 646 mmHg 98%
    06:00 +4°C° 3.1 mm 3 m/s 645 mmHg 98%
    07:00 +4°C° 3.1 mm 3 m/s 645 mmHg 98%
    08:00 +5°C° 2.3 mm 2 m/s 645 mmHg 98%
    09:00 +5°C° 2.3 mm 2 m/s 645 mmHg 98%
    10:00 +5°C° 2.3 mm 2 m/s 645 mmHg 99%
    11:00 +4°C° 1.5 mm 2 m/s 644 mmHg 99%
    12:00 +4°C° 1.5 mm 2 m/s 643 mmHg 98%
    13:00 +4°C° 1.5 mm 2 m/s 642 mmHg 98%
    14:00 +3°C° 2.5 mm 3 m/s 642 mmHg 98%
    15:00 +3°C° 2.5 mm 3 m/s 641 mmHg 98%
    16:00 +3°C° 2.5 mm 3 m/s 640 mmHg 98%
    17:00 +2°C° 2.4 mm 3 m/s 640 mmHg 98%
    18:00 +1°C° 2.4 mm 3 m/s 640 mmHg 97%
    19:00 +1°C° 2.4 mm 3 m/s 640 mmHg 97%
    20:00 +1°C° 0.3 mm 2 m/s 640 mmHg 97%
    21:00 +1°C° 0.3 mm 2 m/s 641 mmHg 97%
    22:00 +1°C° 0.3 mm 1 m/s 641 mmHg 97%
    23:00 +1°C° 0.6 mm 1 m/s 641 mmHg 97%

    Mâine, 21 Ianuarie, Luni

    Timp Temperatura Precipitaţii Vânt Presiune Umiditate
    00:00 +1°C° 0.6 mm 1 m/s 642 mmHg 97%
    01:00 +1°C° 0.6 mm 1 m/s 642 mmHg 97%
    02:00 +1°C° 0.1 mm 1 m/s 642 mmHg 97%
    03:00 0°C° 0.1 mm 1 m/s 643 mmHg 97%
    04:00 -1°C° 0.1 mm 1 m/s 643 mmHg 97%
    05:00 -1°C° 0 mm 1 m/s 643 mmHg 97%
    06:00 -2°C° 0 mm 1 m/s 644 mmHg 96%
    07:00 -3°C° 0 mm 1 m/s 644 mmHg 96%
    08:00 -1°C° 0 mm 1 m/s 645 mmHg 92%
    09:00 0°C° 0 mm 1 m/s 646 mmHg 88%
    10:00 +1°C° 0 mm 1 m/s 648 mmHg 84%
    11:00 +2°C° 0 mm 1 m/s 648 mmHg 83%
    12:00 +2°C° 0 mm 2 m/s 648 mmHg 82%
    13:00 +3°C° 0 mm 2 m/s 648 mmHg 81%
    14:00 +3°C° 0.1 mm 2 m/s 649 mmHg 82%
    15:00 +2°C° 0.1 mm 2 m/s 649 mmHg 84%
    16:00 +3°C° 0.1 mm 1 m/s 649 mmHg 85%
    17:00 +1°C° 0 mm 1 m/s 649 mmHg 87%
    18:00 -1°C° 0 mm 1 m/s 649 mmHg 89%
    19:00 -3°C° 0 mm 1 m/s 649 mmHg 91%
    20:00 -4°C° 0 mm 1 m/s 649 mmHg 92%
    21:00 -6°C° 0 mm 1 m/s 650 mmHg 93%
    22:00 -6°C° 0 mm 1 m/s 650 mmHg 94%
    23:00 -7°C° 0 mm 2 m/s 650 mmHg 94%

    Poimâine, 22 Ianuarie, Marţi

    Timp Temperatura Precipitaţii Vânt Presiune Umiditate
    00:00 -8°C° 0 mm 2 m/s 650 mmHg 94%
    01:00 -8°C° 0 mm 2 m/s 651 mmHg 94%
    02:00 -8°C° 0 mm 2 m/s 651 mmHg 94%
    03:00 -8°C° 0 mm 2 m/s 651 mmHg 93%
    04:00 -8°C° 0 mm 2 m/s 651 mmHg 93%
    05:00 -8°C° 0 mm 2 m/s 651 mmHg 92%
    06:00 -7°C° 0 mm 2 m/s 651 mmHg 91%
    07:00 -7°C° 0 mm 2 m/s 651 mmHg 90%
    08:00 -5°C° 0 mm 2 m/s 652 mmHg 86%
    09:00 -3°C° 0 mm 2 m/s 653 mmHg 82%
    10:00 -1°C° 0 mm 2 m/s 654 mmHg 78%
    11:00 +1°C° 0 mm 2 m/s 654 mmHg 79%
    12:00 +3°C° 0 mm 2 m/s 654 mmHg 79%
    13:00 +4°C° 0 mm 2 m/s 654 mmHg 79%
    14:00 +4°C° 0 mm 2 m/s 654 mmHg 81%
    15:00 +4°C° 0 mm 2 m/s 653 mmHg 83%
    16:00 +3°C° 0 mm 2 m/s 653 mmHg 85%
    17:00 +2°C° 0 mm 2 m/s 653 mmHg 84%
    18:00 -1°C° 0 mm 2 m/s 653 mmHg 83%
    19:00 -2°C° 0 mm 2 m/s 653 mmHg 81%
    20:00 0°C° 0 mm 1 m/s 653 mmHg 82%
    21:00 0°C° 0 mm 1 m/s 653 mmHg 82%
    22:00 0°C° 0 mm 1 m/s 654 mmHg 82%
    23:00 0°C° 0 mm 1 m/s 654 mmHg 83%

    23 Ianuarie, Miercuri

    Timp Temperatura Precipitaţii Vânt Presiune Umiditate
    00:00 0°C° 0 mm 1 m/s 654 mmHg 84%
    01:00 -1°C° 0 mm 2 m/s 653 mmHg 85%
    02:00 -1°C° 0 mm 2 m/s 653 mmHg 86%
    03:00 -1°C° 0 mm 2 m/s 653 mmHg 88%
    04:00 -1°C° 0 mm 2 m/s 653 mmHg 89%
    05:00 -1°C° 0 mm 2 m/s 653 mmHg 89%
    06:00 -1°C° 0 mm 2 m/s 653 mmHg 89%
    07:00 -1°C° 0 mm 2 m/s 653 mmHg 90%
    08:00 +2°C° 0 mm 2 m/s 654 mmHg 90%
    09:00 +5°C° 0 mm 1 m/s 655 mmHg 90%
    10:00 +6°C° 0 mm 1 m/s 656 mmHg 90%
    11:00 +8°C° 0 mm 1 m/s 655 mmHg 90%
    12:00 +9°C° 0 mm 1 m/s 655 mmHg 90%
    13:00 +10°C° 0 mm 1 m/s 655 mmHg 90%
    14:00 +9°C° 0 mm 1 m/s 655 mmHg 92%
    15:00 +9°C° 0 mm 1 m/s 654 mmHg 95%
    16:00 +8°C° 0 mm 1 m/s 653 mmHg 97%
    17:00 +6°C° 0 mm 1 m/s 653 mmHg 95%
    18:00 +5°C° 0 mm 1 m/s 653 mmHg 92%
    19:00 +3°C° 0 mm 1 m/s 652 mmHg 90%
    20:00 +3°C° 0 mm 1 m/s 652 mmHg 90%
    21:00 +2°C° 0 mm 1 m/s 652 mmHg 89%
    22:00 +2°C° 0 mm 1 m/s 652 mmHg 88%
    23:00 +2°C° 0 mm 1 m/s 652 mmHg 88%

    24 Ianuarie, Joi

    Timp Temperatura Precipitaţii Vânt Presiune Umiditate
    00:00 +2°C° 0 mm 1 m/s 652 mmHg 87%
    01:00 +2°C° 0 mm 1 m/s 652 mmHg 86%
    02:00 +2°C° 0 mm 1 m/s 652 mmHg 88%
    03:00 +2°C° 0 mm 1 m/s 651 mmHg 89%
    04:00 +2°C° 0 mm 1 m/s 651 mmHg 90%
    05:00 -1°C° 0 mm 2 m/s 651 mmHg 91%
    06:00 -1°C° 0 mm 2 m/s 651 mmHg 91%
    07:00 -1°C° 0 mm 2 m/s 651 mmHg 91%
    08:00 +2°C° 0 mm 2 m/s 651 mmHg 89%
    09:00 +4°C° 0 mm 2 m/s 652 mmHg 86%
    10:00 +6°C° 0 mm 2 m/s 653 mmHg 84%
    11:00 +6°C° 0 mm 2 m/s 653 mmHg 83%
    12:00 +7°C° 0 mm 2 m/s 653 mmHg 81%
    13:00 +8°C° 0 mm 2 m/s 652 mmHg 80%
    14:00 +7°C° 0 mm 2 m/s 652 mmHg 82%
    15:00 +7°C° 0 mm 2 m/s 651 mmHg 85%
    16:00 +6°C° 0 mm 2 m/s 651 mmHg 87%
    17:00 +4°C° 0 mm 2 m/s 651 mmHg 89%
    18:00 +3°C° 0 mm 2 m/s 650 mmHg 91%
    19:00 +1°C° 0 mm 2 m/s 650 mmHg 92%
    20:00 +1°C° 0 mm 2 m/s 650 mmHg 92%
    21:00 -1°C° 0 mm 2 m/s 650 mmHg 92%
    22:00 -1°C° 0 mm 2 m/s 650 mmHg 92%
    23:00 -1°C° 0 mm 2 m/s 650 mmHg 93%

    25 Ianuarie, Vineri

    Timp Temperatura Precipitaţii Vânt Presiune Umiditate
    00:00 -1°C° 0 mm 2 m/s 650 mmHg 93%
    01:00 -2°C° 0 mm 2 m/s 650 mmHg 93%
    02:00 -2°C° 0 mm 2 m/s 650 mmHg 93%
    03:00 -2°C° 0 mm 2 m/s 650 mmHg 93%
    04:00 -2°C° 0 mm 2 m/s 650 mmHg 93%
    05:00 -2°C° 0 mm 2 m/s 650 mmHg 93%
    06:00 -2°C° 0 mm 2 m/s 650 mmHg 93%
    07:00 -2°C° 0 mm 2 m/s 650 mmHg 92%
    08:00 +1°C° 0 mm 2 m/s 650 mmHg 88%
    09:00 +3°C° 0 mm 2 m/s 651 mmHg 84%
    10:00 +5°C° 0 mm 2 m/s 652 mmHg 80%
    11:00 +7°C° 0 mm 2 m/s 652 mmHg 77%
    12:00 +8°C° 0 mm 2 m/s 652 mmHg 75%
    13:00 +11°C° 0 mm 1 m/s 652 mmHg 73%
    14:00 +9°C° 0 mm 2 m/s 652 mmHg 76%
    15:00 +8°C° 0 mm 2 m/s 651 mmHg 80%
    16:00 +7°C° 0 mm 2 m/s 651 mmHg 83%
    17:00 +5°C° 0 mm 2 m/s 650 mmHg 85%
    18:00 +3°C° 0 mm 2 m/s 650 mmHg 87%
    19:00 +1°C° 0 mm 2 m/s 650 mmHg 88%
    20:00 +1°C° 0 mm 2 m/s 650 mmHg 88%
    21:00 +1°C° 0 mm 2 m/s 650 mmHg 88%
    22:00 -1°C° 0 mm 2 m/s 650 mmHg 87%
    23:00 -1°C° 0 mm 2 m/s 650 mmHg 87%
    Arată mai mult